Regional Weather Roundup
Issued by NWS

Home | Current Version | Previous Version | Text Only | Print | Product List | Glossary On
Versions: 1 2 3 4 5 6 7 8 9 10 11 12 13 14 15 16 17 18 19 20 21 22 23 24 25 26 27 28 29 30 31 32 33 34 35 36 37 38 39 40 41 42 43 44 45 46 47 48 49 50
000
ASUS46 KSTO 250015
RWRCA

NORTHERN AND CENTRAL CA REGIONAL WEATHER ROUNDUP
NATIONAL WEATHER SERVICE SACRAMENTO CA
400 PM PST TUE JAN 24 2017

NOTE: FAIR INDICATES FEW OR NO CLOUDS BELOW 12,000 FEET WITH NO
SIGNIFICANT WEATHER AND/OR OBSTRUCTIONS TO VISIBILITY.

CAZ001-003-250100-
NORTHWEST AREA

CITY           SKY/WX    TMP DP  RH WIND       PRES   REMARKS
CRESCENT CITY  SUNNY     50  39  66 NW3       30.16R
UKIAH          SUNNY     53  37  54 NW8       30.11R
$$

CAZ006-505>513-250100-
BAY AREA

CITY           SKY/WX    TMP DP  RH WIND       PRES   REMARKS
SANTA ROSA     MOSUNNY   55  39  54 W7        30.09R
SAN RAFAEL     N/A       55  MM  MM MISG
NAPA           MOSUNNY   54  43  66 SW13      30.11R
CONCORD        MOSUNNY   54  38  54 E3        30.12R
OAKLAND CITY   N/A      MM  MM  MM MISG
OAKLAND        MOSUNNY   56  40  55 NE8       30.11R
SAN FRAN CITY  N/A       52  MM  58 MISG
SAN FRAN ARPT  MOSUNNY   53  39  59 N7        30.12R
LIVERMORE      SUNNY     50  37  61 NE8       30.10R
HAYWARD        SUNNY     56  36  47 N8        30.10R
REDWOOD CITY   N/A       53  MM  63 MISG
MOFFETT ARPT   SUNNY     53  40  61 N10       30.11R
SAN JOSE ARPT  MOSUNNY   55  40  56 NW13      30.08R
$$
CAZ034-037-514>518-250100-
CENTRAL COAST

CITY           SKY/WX    TMP DP  RH WIND       PRES   REMARKS
WATSONVILLE    MOSUNNY   55  41  59 E8        30.08R
SALINAS        SUNNY     55  37  50 N12       30.06R
MONTEREY       SUNNY     55  37  50 NE7       30.07R
SAN LUIS OBISP PTSUNNY   57  43  59 CALM      30.04R
SANTA MARIA    CLOUDY    53  40  61 NW6       30.04R
$$
CAZ015-016-250100-
NORTHERN SACRAMENTO VALLEY

CITY           SKY/WX    TMP DP  RH WIND       PRES   REMARKS
REDDING        SUNNY     54  36  50 NW5       30.09R
RED BLUFF      SUNNY     55  32  41 NW10      30.10R
OROVILLE       SUNNY     54  33  45 NW8       30.10R
$$
CAZ016>018-250100-
SOUTHERN SACRAMENTO VALLEY

CITY           SKY/WX    TMP DP  RH WIND       PRES   REMARKS
AUBURN         SUNNY     48  37  66 W6        30.07R
BEALE AFB      SUNNY     53  39  58 NW8       30.08R
LINCOLN        FAIR      54  36  50 NW10      30.09R
MARYSVILLE     SUNNY     54  37  52 NW12      30.10R
SAC INTL ARPT  SUNNY     52  40  63 NW10      30.10R
MATHER AIRPORT MOSUNNY   54  39  58 NW12G17   30.10R
DOWNTOWN SAC   N/A       53  MM  MM MISG
SAC EXEC ARPT  SUNNY     52  40  63 NW12      30.10R
VACAVILLE      SUNNY     56  40  55 N6        30.11R
TRAVIS AFB     SUNNY     54  41  60 NE7       30.09R
$$
CAZ019>021-250100-
SAN JOAQUIN VALLEY

CITY           SKY/WX    TMP DP  RH WIND       PRES   REMARKS
STOCKTON       MOSUNNY   53  42  66 NW9       30.10R
MODESTO        PTSUNNY   53  40  61 W9        30.09R
MERCED         MOSUNNY   52  37  56 W7        30.09R
LEMOORE        MOSUNNY   52  40  63 NW9       30.09R
FRESNO         MOSUNNY   51  34  52 NW12      30.08R
HANFORD        MOSUNNY   52  37  56 NW8       30.08R
PORTERVILLE    SUNNY     53  37  54 NW9       30.07R
BAKERSFIELD    MOSUNNY   54  36  50 N9        30.05R
$$
CAZ011-012-071-250100-
NORTHERN MOUNTAINS

CITY           SKY/WX    TMP DP  RH WIND       PRES   REMARKS
YREKA          SUNNY     43  26  51 W3        30.10R
MOUNT SHASTA   SUNNY     36  29  75 W3        30.06R
ALTURAS        SUNNY     34  20  56 NW5       30.03R WCI  30
$$
CAZ011-012-071-250100-
SIERRA NEVADA MTNS

CITY           SKY/WX    TMP DP  RH WIND       PRES   REMARKS
TAHOE VLY ARPT SUNNY     26  13  57 CALM      29.95R
MAMMOTH LAKES  FAIR      10   3  76 CALM      29.92R
$$



USA.gov is the U.S. government's official web portal to all federal, state and local government web resources and services.